Wind_Speed
3 2 1 1 2 2 1 2 3 4 5 6 6 7 7 8 8 8 8 7 7 7 6 6 5 5 4 3 3 2 2 2 2 2 2 2 2 2 2 2 2 2 3 3 3 2 2 3 4
3 3 2 1 1 1 3 3 3 4 5 6 6 7 7 8 8 8 7 7 7 7 7 6 5 4 3 3 2 2 2 2 2 1 1 2 1 1 1 1 2 3 3 2 2 2 2 3 3
4 3 2 1 2 3 4 4 3 4 5 5 6 6 6 7 8 8 8 8 7 7 7 7 5 4 3 3 2 2 1 2 1 1 1 1 1 1 1 1 1 2 3 2 2 2 2 3 3
5 4 3 2 3 5 5 5 4 3 5 6 6 6 6 7 8 8 8 8 8 8 7 7 5 4 3 3 2 2 1 1 1 1 1 1 1 1 1 1 2 3 3 3 3 3 3 3 3
6 4 3 4 5 6 6 5 4 4 5 6 7 8 7 7 8 8 8 8 8 8 8 7 6 5 4 3 3 3 2 2 1 1 1 1 2 2 2 1 2 4 4 4 3 3 3 2 2
6 5 5 6 7 7 7 6 6 6 6 6 7 7 8 8 8 8 8 8 8 8 8 7 6 5 4 4 4 3 3 2 2 2 2 2 2 2 2 1 1 3 4 4 4 3 3 2 2
8 7 7 7 8 9 8 7 7 7 6 7 7 7 8 9 8 8 8 8 8 8 8 7 7 6 5 4 4 4 3 2 2 3 3 3 2 2 2 1 1 2 3 4 4 4 3 3 3
10 9 8 9 10 10 9 8 8 8 7 8 8 9 9 9 9 9 8 8 8 8 8 7 7 6 5 5 5 4 4 3 4 4 3 3 2 2 3 2 2 2 3 3 4 4 4 4 4
11 10 10 11 12 12 11 9 9 8 8 9 9 9 10 9 9 9 9 9 8 8 8 8 7 7 6 6 5 5 5 5 4 4 4 4 4 4 4 4 3 3 3 3 4 4 5 5 5
13 12 12 13 13 12 12 11 10 9 9 10 10 10 9 9 10 10 10 9 9 9 9 8 8 7 7 6 6 6 6 5 5 5 5 5 5 5 5 5 4 4 4 4 4 5 5 6 6
14 13 13 13 13 13 12 12 11 11 11 12 12 11 10 9 10 10 10 10 10 9 9 9 8 8 8 7 6 6 6 6 6 6 6 6 6 7 7 6 6 5 6 6 6 6 6 7 7
16 15 14 14 14 13 13 13 12 12 12 13 12 11 11 11 10 11 11 11 10 10 9 9 9 9 8 7 7 6 7 7 7 7 7 8 8 8 8 8 8 7 7 8 8 8 8 8 8
17 16 16 16 16 15 14 14 14 14 14 14 13 12 11 11 11 11 11 11 10 10 9 10 10 9 9 9 9 8 8 8 8 9 8 8 8 8 8 9 9 9 8 9 9 10 10 9 9
17 17 17 17 17 17 16 16 16 15 16 15 14 13 12 11 11 11 11 11 10 10 10 10 10 10 10 9 9 9 9 9 8 8 8 9 9 9 9 9 9 9 9 10 10 10 11 10 10
18 18 18 19 18 17 17 17 17 16 16 15 15 14 13 13 12 11 11 11 11 10 10 11 10 10 10 10 10 9 10 10 10 10 9 10 10 11 10 10 10 10 10 10 11 11 12 12 11
19 19 19 19 19 19 18 17 17 16 16 16 16 15 15 14 13 12 12 12 11 11 11 11 11 10 10 10 11 11 11 11 12 11 11 11 11 12 12 11 11 12 12 12 12 12 12 13 13
20 19 19 19 20 20 19 18 18 18 17 17 17 16 15 15 14 13 13 12 12 12 12 12 12 12 12 12 13 13 13 13 13 13 13 13 13 13 13 12 12 13 13 13 13 13 13 13 13
20 20 19 20 21 20 19 19 19 19 17 17 17 17 16 15 15 14 14 14 14 14 14 14 14 14 14 14 14 15 14 14 14 14 14 14 14 14 14 13 13 14 14 14 14 13 13 14 13
22 21 20 21 22 20 19 18 19 19 19 18 17 17 16 16 16 16 16 16 15 15 15 15 15 15 15 15 15 15 15 15 15 16 16 16 15 15 15 14 14 14 14 14 15 15 15 15 14
22 21 20 21 22 21 20 20 20 20 19 19 19 19 18 18 17 16 17 18 17 17 16 16 16 16 16 17 17 17 17 16 16 16 16 16 16 15 15 14 14 14 15 15 15 15 15 16 16
22 21 21 22 22 22 22 21 20 20 20 20 21 20 20 19 19 18 18 18 18 18 17 17 17 17 17 18 19 18 17 17 16 16 16 16 16 15 15 15 15 15 15 15 15 16 16 16 16
23 22 22 23 22 21 22 20 20 20 21 21 21 21 20 20 20 20 19 18 18 18 19 18 18 17 18 18 18 16 16 16 16 16 16 16 16 16 16 16 16 16 16 16 16 17 17 17 17
23 23 23 23 23 22 22 21 20 20 21 20 20 20 20 20 20 20 19 19 19 19 19 20 19 18 19 18 17 16 16 15 16 16 15 16 16 16 16 16 16 16 17 17 17 17 18 18 17
24 24 24 23 23 24 23 22 21 20 20 20 21 20 20 21 21 21 20 20 20 20 20 21 20 19 19 19 17 16 16 16 15 16 16 16 16 16 16 17 17 17 17 18 18 18 18 19 19
24 23 23 23 24 24 23 23 22 20 20 21 21 20 20 21 22 21 21 21 20 21 22 22 21 21 20 19 17 16 16 16 16 16 16 16 16 17 17 18 18 18 18 19 19 19 19 20 20
25 24 24 23 22 22 24 25 22 21 20 21 21 21 21 21 22 22 21 21 22 22 23 23 22 22 21 19 18 17 17 16 17 17 17 17 18 18 18 19 19 19 19 19 19 20 20 20 20
25 26 24 23 22 22 24 24 22 21 20 21 22 22 21 21 22 22 22 22 22 23 23 23 22 22 21 20 19 19 18 18 18 18 18 18 19 19 19 19 19 19 20 20 20 20 20 20 21
26 25 25 24 23 22 22 23 22 21 21 21 21 21 22 22 23 23 23 23 23 22 23 24 23 23 22 21 20 20 20 19 19 19 19 19 19 19 18 18 19 19 19 19 20 20 20 20 20
26 26 26 25 24 22 21 22 23 22 21 22 22 22 23 23 24 25 24 24 24 24 24 25 24 24 23 23 22 22 21 21 22 22 21 21 20 20 19 19 19 19 20 20 21 21 21 22 22
26 26 26 26 26 24 22 24 26 23 22 22 23 24 24 24 25 25 25 25 25 25 25 26 25 24 24 24 24 23 23 23 23 23 23 23 22 21 21 21 21 21 21 21 22 22 22 23 23
Wind_Direction
198 193 183 154 69 44 306 333 355 3 11 19 24 26 28 27 23 17 13 14 11 6 3 5 4 6 10 18 22 32 43 44 45 40 48 61 65 77 87 113 136 150 150 157 167 176 190 201 211
220 220 226 189 108 258 280 307 340 356 2 11 16 20 25 21 18 12 7 7 4 359 357 359 358 357 359 4 7 23 36 34 33 37 60 63 55 55 68 122 148 153 156 160 176 183 202 218 216
229 233 234 215 200 223 257 289 317 340 347 358 4 7 15 14 14 4 360 358 358 355 352 352 354 351 345 340 338 347 12 29 41 41 46 48 23 348 337 253 186 171 181 177 182 185 201 222 227
233 229 233 242 251 255 264 285 300 324 334 344 348 352 358 1 1 357 353 350 352 352 349 349 348 345 337 326 322 318 326 343 5 360 357 355 343 341 337 272 219 189 191 192 199 204 214 223 223
238 232 236 251 262 268 281 285 292 312 321 333 334 335 340 345 349 346 344 342 343 346 343 340 338 334 329 317 307 308 293 285 282 296 300 315 316 330 326 276 227 208 203 198 202 211 214 217 228
240 237 233 247 264 273 279 282 287 295 306 319 325 327 331 333 339 339 336 335 335 336 334 331 327 323 319 311 299 297 295 279 272 279 284 292 306 309 322 328 221 200 198 199 198 206 203 205 220
240 237 235 243 256 266 274 279 287 294 295 309 316 314 318 320 327 328 327 328 331 332 326 323 321 314 308 301 295 293 294 271 273 272 273 280 285 298 278 249 201 201 205 195 196 205 211 209 219
241 242 243 246 250 260 270 274 282 288 294 302 309 310 308 316 323 322 321 320 322 322 320 318 317 315 308 301 292 285 281 276 266 268 265 266 271 272 261 247 235 210 199 200 206 215 225 223 226
243 244 244 247 251 259 266 268 276 284 287 293 299 305 303 307 314 317 316 315 314 311 310 309 306 304 301 297 292 284 280 278 268 260 259 263 268 269 262 257 253 240 222 212 219 225 229 229 233
245 243 244 248 253 259 263 264 272 275 282 286 292 298 297 298 306 310 312 313 309 305 301 300 299 296 297 294 294 284 279 277 269 260 261 263 270 269 266 258 253 246 239 235 235 233 236 237 244
247 245 247 250 253 255 261 265 269 274 278 281 286 287 289 294 299 303 307 306 305 300 300 296 294 294 292 290 291 284 279 277 273 265 260 260 267 270 264 259 251 249 246 247 246 243 244 248 251
250 250 250 252 252 255 259 264 268 272 276 280 283 283 287 297 297 296 299 301 302 300 292 291 290 290 290 287 287 280 275 278 278 273 267 263 262 265 265 263 257 255 250 249 248 248 252 253 254
252 252 250 250 252 254 258 262 268 271 276 278 282 282 284 291 292 291 294 296 295 294 288 284 282 280 281 285 290 281 273 275 280 276 272 265 261 262 262 262 259 257 254 252 252 252 253 251 250
251 251 251 252 253 256 259 264 267 268 271 272 275 280 282 286 287 287 290 287 287 290 288 283 279 276 277 282 287 283 274 275 279 278 270 264 261 262 262 257 257 256 254 254 254 254 253 256 257
251 251 251 252 253 254 260 263 265 265 265 268 270 274 275 275 280 282 281 280 281 287 286 282 281 279 277 280 279 279 277 277 277 276 272 267 262 259 259 257 256 255 254 254 256 257 256 260 262
250 250 250 252 252 253 257 259 262 263 263 265 267 269 271 271 275 277 275 275 276 282 284 283 282 282 279 280 281 280 279 278 276 274 271 269 263 260 259 258 257 255 255 255 258 260 260 262 264
249 248 249 251 251 253 254 256 260 262 261 263 265 266 269 269 271 273 272 271 274 279 280 280 280 280 281 283 284 282 278 275 274 272 270 269 266 261 259 258 256 253 255 257 257 256 259 262 264
246 246 248 251 253 254 255 257 260 262 262 263 265 265 265 268 269 269 269 268 272 276 280 280 282 284 283 284 283 282 279 274 273 271 270 268 265 262 259 257 256 256 255 257 257 255 257 261 263
244 245 249 252 254 254 255 257 260 261 261 262 263 263 262 264 266 267 268 269 271 277 281 284 284 286 286 286 286 280 278 273 269 269 271 269 267 264 260 258 256 257 258 259 257 255 256 258 262
242 244 247 251 254 255 256 258 259 261 261 261 262 263 262 262 265 269 268 269 270 276 280 286 286 286 287 288 288 280 276 272 270 270 269 268 268 266 262 259 258 259 260 259 258 256 256 258 260
244 245 247 250 255 258 261 263 263 262 261 261 261 263 262 262 261 264 268 268 268 273 278 281 282 284 288 288 286 280 273 271 270 269 268 266 266 265 263 261 259 259 259 259 259 257 259 258 259
245 246 248 251 256 259 260 260 263 261 260 261 261 263 262 261 260 263 265 267 269 271 275 279 280 284 286 287 286 282 275 270 269 268 266 264 264 264 263 263 262 262 260 258 259 260 261 262 263
244 247 249 252 256 257 259 261 261 262 262 261 261 263 265 263 261 261 263 265 269 270 273 277 278 283 287 288 286 284 276 271 269 269 268 265 264 264 263 262 261 261 261 260 259 262 264 266 269
244 246 250 253 255 256 259 262 261 262 262 262 262 263 265 264 262 261 262 265 267 268 270 273 274 280 286 287 283 280 274 270 268 267 266 267 267 265 265 263 261 260 261 261 261 262 265 268 269
244 245 248 250 252 257 261 262 261 261 262 263 264 264 264 263 263 263 263 264 267 269 272 273 274 277 281 283 278 276 273 269 267 268 268 269 270 268 269 266 263 263 264 262 262 263 265 267 268
245 245 244 249 255 259 261 263 264 264 264 262 263 263 263 262 261 263 265 265 266 268 270 273 275 275 279 279 277 274 272 269 268 268 270 270 270 270 270 269 265 268 269 264 264 265 266 268 269
244 243 245 249 253 257 262 266 267 267 265 264 264 263 262 262 262 263 265 268 267 268 270 272 275 273 274 274 272 271 270 270 269 270 269 268 270 271 269 268 267 269 272 268 266 268 267 269 271
243 244 244 247 252 256 262 265 267 268 266 266 265 264 264 263 264 265 267 268 268 269 270 270 274 273 270 268 268 269 269 269 269 269 268 267 268 269 269 269 270 270 271 269 267 268 268 270 272
243 244 246 248 252 256 262 266 266 267 265 265 266 266 265 265 265 266 268 269 268 268 269 270 273 270 266 265 267 268 269 270 269 268 268 267 266 266 267 268 271 271 270 269 268 268 268 271 272
245 245 246 248 252 256 261 266 266 266 263 263 264 265 266 265 266 266 268 268 267 267 267 269 272 269 264 263 264 266 268 270 270 268 268 268 265 265 266 268 271 272 270 270 270 270 270 272 271
Height
5903 5904 5904 5906 5907 5909 5908 5907 5905 5904 5904 5902 5901 5900 5899 5898 5898 5898 5895 5892 5890 5889 5887 5886 5885 5884 5883 5883 5882 5881 5881 5880 5879 5878 5878 5877 5876 5876 5876 5876 5876 5876 5876 5877 5877 5877 5878 5878 5878
5903 5904 5905 5906 5908 5909 5908 5906 5905 5904 5903 5902 5901 5900 5898 5897 5896 5895 5893 5892 5890 5889 5887 5886 5885 5884 5883 5882 5882 5881 5880 5879 5879 5878 5877 5877 5876 5876 5876 5876 5876 5876 5876 5876 5877 5877 5877 5877 5878
5902 5903 5905 5906 5907 5908 5907 5905 5904 5904 5903 5901 5900 5899 5898 5897 5896 5894 5893 5891 5890 5888 5887 5886 5884 5884 5883 5882 5881 5880 5880 5879 5878 5878 5877 5877 5876 5876 5875 5875 5875 5875 5876 5876 5876 5877 5877 5877 5877
5901 5903 5905 5906 5906 5905 5905 5904 5903 5903 5902 5901 5900 5899 5897 5896 5895 5894 5892 5891 5889 5888 5886 5885 5884 5883 5882 5881 5880 5880 5879 5879 5878 5877 5877 5876 5876 5875 5875 5875 5874 5875 5875 5875 5876 5876 5876 5877 5876
5900 5902 5904 5905 5904 5904 5903 5903 5902 5902 5901 5900 5899 5898 5897 5895 5894 5893 5891 5890 5889 5887 5886 5885 5884 5883 5882 5881 5880 5879 5878 5878 5877 5877 5877 5876 5876 5875 5874 5874 5874 5874 5874 5875 5875 5876 5876 5876 5877
5900 5901 5904 5904 5903 5902 5902 5901 5901 5901 5900 5899 5898 5897 5896 5894 5893 5892 5890 5889 5888 5886 5885 5884 5883 5882 5881 5880 5879 5878 5877 5877 5877 5876 5876 5876 5875 5875 5874 5874 5873 5873 5874 5874 5875 5876 5876 5876 5876
5899 5900 5901 5902 5902 5901 5900 5900 5900 5899 5899 5898 5897 5896 5895 5893 5892 5891 5889 5888 5887 5885 5884 5883 5882 5881 5880 5879 5878 5877 5877 5876 5876 5875 5875 5875 5875 5874 5874 5874 5873 5873 5874 5874 5875 5875 5875 5876 5876
5896 5898 5899 5900 5900 5899 5898 5898 5898 5897 5897 5897 5896 5895 5894 5892 5891 5889 5888 5887 5886 5884 5883 5882 5881 5880 5879 5878 5877 5876 5876 5875 5875 5874 5874 5874 5874 5874 5873 5873 5873 5873 5873 5874 5874 5875 5875 5876 5876
5893 5896 5897 5897 5897 5897 5896 5896 5896 5896 5895 5895 5894 5893 5892 5891 5889 5888 5887 5885 5884 5883 5882 5881 5880 5879 5878 5877 5876 5875 5874 5874 5873 5873 5873 5873 5873 5873 5872 5872 5872 5873 5873 5873 5874 5874 5875 5875 5875
5891 5893 5894 5894 5894 5894 5893 5893 5894 5894 5894 5893 5892 5891 5890 5889 5888 5887 5885 5884 5883 5882 5881 5880 5879 5877 5876 5875 5874 5873 5873 5872 5872 5872 5872 5872 5872 5871 5871 5871 5872 5872 5872 5873 5873 5873 5874 5874 5874
5887 5889 5890 5890 5890 5891 5891 5891 5891 5891 5891 5891 5890 5889 5888 5887 5886 5885 5884 5883 5881 5880 5879 5878 5877 5876 5875 5874 5873 5872 5871 5871 5871 5871 5870 5870 5870 5870 5870 5870 5870 5871 5871 5871 5872 5872 5873 5873 5873
5884 5885 5886 5887 5887 5888 5888 5888 5888 5888 5889 5888 5887 5887 5886 5886 5885 5883 5882 5881 5880 5878 5877 5877 5876 5875 5874 5873 5871 5870 5870 5870 5869 5869 5869 5869 5869 5869 5869 5869 5869 5869 5870 5870 5870 5871 5871 5871 5872
5880 5882 5882 5883 5884 5884 5885 5885 5885 5885 5885 5885 5885 5884 5884 5883 5882 5881 5880 5879 5878 5877 5876 5875 5874 5873 5872 5871 5870 5869 5868 5868 5868 5867 5867 5867 5867 5867 5867 5867 5867 5868 5868 5868 5868 5869 5869 5869 5869
5876 5877 5878 5879 5880 5881 5882 5882 5882 5882 5882 5882 5882 5882 5882 5881 5880 5879 5878 5877 5876 5875 5874 5873 5872 5871 5870 5869 5868 5867 5866 5866 5865 5865 5865 5865 5865 5865 5865 5865 5865 5866 5866 5866 5866 5867 5867 5867 5867
5871 5873 5875 5875 5876 5877 5878 5879 5878 5879 5878 5878 5878 5878 5878 5878 5877 5876 5876 5875 5874 5873 5872 5870 5869 5868 5868 5867 5866 5865 5865 5864 5864 5863 5862 5862 5862 5862 5863 5863 5863 5863 5863 5864 5864 5864 5865 5865 5865
5867 5869 5871 5872 5872 5873 5876 5876 5875 5875 5875 5875 5875 5875 5875 5875 5874 5873 5873 5872 5871 5870 5869 5868 5867 5866 5865 5864 5864 5863 5862 5861 5861 5860 5859 5859 5859 5859 5859 5860 5860 5860 5861 5861 5861 5862 5862 5862 5862
5863 5865 5867 5868 5868 5869 5871 5871 5871 5871 5871 5871 5871 5871 5871 5871 5871 5871 5870 5870 5869 5868 5867 5866 5865 5864 5863 5862 5861 5860 5859 5858 5857 5857 5856 5856 5856 5856 5856 5857 5857 5857 5858 5858 5858 5859 5859 5859 5859
5860 5861 5862 5863 5863 5865 5866 5866 5867 5866 5867 5868 5868 5868 5868 5868 5868 5867 5867 5867 5866 5865 5864 5863 5862 5861 5859 5858 5857 5856 5855 5854 5854 5853 5853 5852 5852 5853 5853 5853 5854 5854 5855 5855 5855 5856 5856 5856 5856
5855 5856 5858 5858 5858 5860 5861 5862 5862 5862 5863 5863 5863 5864 5864 5864 5864 5864 5863 5863 5863 5862 5861 5860 5859 5858 5856 5855 5854 5853 5851 5850 5849 5849 5849 5849 5849 5849 5849 5849 5850 5850 5851 5851 5852 5852 5852 5853 5852
5849 5851 5853 5853 5853 5855 5856 5857 5858 5858 5858 5859 5859 5859 5860 5860 5860 5860 5860 5859 5859 5859 5858 5856 5855 5854 5853 5852 5850 5849 5847 5846 5845 5845 5844 5844 5845 5845 5845 5846 5846 5847 5847 5848 5848 5848 5849 5849 5849
5844 5846 5848 5849 5849 5850 5852 5853 5853 5854 5854 5854 5854 5855 5855 5856 5856 5856 5855 5855 5855 5854 5853 5852 5851 5850 5849 5847 5846 5844 5842 5841 5841 5841 5840 5840 5840 5841 5841 5842 5842 5843 5843 5844 5844 5845 5845 5845 5845
5839 5841 5842 5843 5845 5846 5847 5849 5849 5849 5849 5849 5850 5850 5850 5851 5851 5851 5851 5850 5850 5849 5849 5848 5847 5846 5845 5843 5841 5840 5838 5837 5837 5837 5836 5836 5836 5837 5838 5838 5838 5839 5839 5840 5840 5840 5841 5841 5841
5833 5835 5836 5837 5839 5841 5842 5843 5845 5844 5844 5844 5845 5845 5845 5845 5845 5845 5845 5845 5845 5845 5844 5843 5842 5841 5840 5839 5837 5836 5834 5834 5833 5832 5832 5832 5833 5833 5833 5833 5834 5834 5835 5835 5836 5836 5836 5836 5836
5827 5829 5830 5832 5834 5835 5837 5838 5839 5839 5839 5839 5839 5840 5840 5840 5840 5840 5840 5840 5840 5839 5839 5838 5838 5837 5835 5834 5833 5832 5831 5830 5830 5829 5829 5829 5828 5829 5829 5829 5829 5830 5830 5830 5831 5831 5831 5831 5831
5821 5824 5826 5827 5829 5830 5831 5831 5833 5833 5834 5834 5834 5834 5834 5834 5835 5835 5835 5835 5834 5834 5834 5833 5833 5832 5830 5829 5828 5828 5827 5826 5825 5825 5825 5825 5824 5825 5825 5825 5825 5825 5825 5825 5825 5826 5826 5826 5826
5816 5819 5822 5824 5825 5826 5824 5824 5827 5827 5827 5827 5828 5828 5828 5829 5829 5829 5829 5829 5829 5829 5829 5828 5827 5826 5825 5824 5824 5823 5822 5822 5821 5821 5821 5821 5820 5820 5820 5820 5820 5820 5820 5820 5820 5820 5820 5820 5820
5809 5811 5815 5817 5818 5819 5818 5818 5819 5820 5821 5821 5821 5822 5822 5823 5823 5823 5823 5823 5823 5823 5823 5823 5822 5821 5820 5819 5819 5819 5818 5817 5817 5816 5816 5816 5816 5816 5815 5815 5815 5815 5815 5815 5815 5815 5815 5815 5814
5803 5805 5807 5809 5811 5813 5814 5813 5815 5814 5814 5815 5815 5815 5816 5816 5817 5817 5817 5818 5818 5817 5817 5817 5816 5816 5815 5814 5814 5814 5813 5812 5812 5811 5811 5811 5811 5810 5810 5810 5810 5810 5809 5809 5809 5809 5809 5809 5808
5797 5799 5800 5803 5805 5807 5809 5811 5807 5808 5808 5808 5809 5809 5809 5809 5810 5810 5811 5811 5811 5811 5810 5810 5810 5809 5809 5808 5808 5808 5807 5807 5806 5806 5806 5805 5805 5805 5805 5805 5805 5804 5804 5804 5803 5803 5803 5803 5802
5790 5792 5794 5797 5798 5799 5802 5804 5799 5801 5801 5802 5802 5802 5802 5802 5803 5803 5803 5804 5804 5804 5804 5803 5803 5802 5802 5802 5801 5801 5801 5800 5800 5800 5799 5799 5798 5799 5799 5799 5799 5798 5798 5797 5797 5796 5796 5796 5795